Location: Arbon
(43.0005°N, 0.7472°E)
Time: 12:45:26
(UTC+00:00)

ISS - Visible Passes

Search period start: 28 October 2020 00:00
Search period end: 07 November 2020 00:00
Orbit: 417 x 420 km, 51.6° (Epoch: 28 October)

Date Brightness Start Highest point End Pass type
(mag) Time Alt. Az. Time Alt. Az. Time Alt. Az.
28 Oct -1.7 04:09:06 25° NE 04:09:06 25° NE 04:10:41 10° NE visible
28 Oct -2.2 05:42:04 12° WNW 05:44:30 22° NNW 05:47:15 10° NE visible
29 Oct -2.5 04:56:24 27° NNW 04:56:35 27° NNW 04:59:32 10° NE visible
30 Oct -1.3 04:10:41 18° NE 04:10:41 18° NE 04:11:49 10° NE visible
30 Oct -1.8 05:43:42 10° NW 05:46:09 19° N 05:48:37 10° NE visible
31 Oct -2.0 04:57:52 20° NNW 04:58:10 20° N 05:00:44 10° NE visible
01 Nov -1.0 04:12:04 15° NNE 04:12:04 15° NNE 04:12:56 10° NE visible
01 Nov -1.8 05:45:17 10° NW 05:47:49 19° N 05:50:20 10° NE visible
02 Nov -1.8 04:59:12 18° NNW 04:59:48 18° N 05:02:15 10° NE visible
03 Nov -1.0 04:13:22 14° NNE 04:13:22 14° NNE 04:14:16 10° NE visible
03 Nov -2.1 05:46:30 10° NW 05:49:23 26° NNE 05:52:16 10° ENE visible
04 Nov -1.9 05:00:30 19° NNW 05:01:25 21° NNE 05:04:06 10° ENE visible
05 Nov -1.1 04:14:42 16° NE 04:14:42 16° NE 04:15:57 10° NE visible
05 Nov -2.9 05:47:39 11° NW 05:50:49 45° NNE 05:54:03 10° E visible
06 Nov -2.4 05:01:53 26° NNW 05:02:55 32° NNE 05:05:59 10° E visible
